sat.trackr.live / text

‹ back to catalog

CARTOSAT-2C

NORAD 41599 · 2016-040A

PAYLOAD ACTIVE UNKNOWN

§ Identity

Operator
Country
IND
Launch date
2016-06-22
Launch site
SRILR
Launch vehicle
Mass (kg)
RCS (m²)
2.00

Purposes: earth_obs

External: N2YO · Heavens-Above · Gunter

§ Orbital elements

Epoch: 2026-05-25T04:56:29.443776Z

Period
94.78 min
Inclination
97.4494°
Eccentricity
0.0009210
Mean motion
15.19271105 rev/d
Perigee alt
501.7 km
Apogee alt
514.4 km
Semi-major
6,886.2 km
B*
8.5162e-5
RAAN
205.4972°
Arg perigee
205.6682°
Mean anomaly
154.4097°
Rev number
55,022

§ Raw data

CARTOSAT-2C1 41599U 16040A   26145.20589634  .00001729  00000+0  85162-4 0  99982 41599  97.4494 205.4972 0009210 205.6682 154.4097 15.19271105550223

JSON: /api/v1/satellites/41599 · /tle

For live sub-satellite position, see the globe view (requires WebGL).

§ Visibility from observer

Set your observer location to see the next 7 days of passes ≥ 10°. The values pass through the URL so the page stays shareable.

No JS? Fill the form by hand. The geolocation button needs JavaScript.

§ Radio — SatNOGS DB

ModeDescriptionDownlinkUplink
CW Beacon 2.246 GHz

1 transmitter · refreshed weekly from db.satnogs.org